Location: Riverside Cemetery
(38.3047°N, 99.7773°W)
Time: 07:17:42
(UTC+00:00)

Cosmos 2263 Rocket - Pass Details

Date: 19 September 2020
Orbit: 822 x 849 km, 71.0° (Epoch: 19 October)

Event Time Altitude Azimuth Distance (km) Brightness Sun altitude
Rises 11:10:00 0° 335° (NNW) 3,399 5.2 -15.3°
Reaches altitude 10° 11:12:27 10° 333° (NNW) 2,464 4.5 -14.9°
Maximum altitude 11:18:04 71° 251° (WSW) 892 2.1 -13.8°
Drops below altitude 10° 11:23:42 10° 168° (SSE) 2,462 4.6 -12.7°
Sets 11:26:09 0° 166° (SSE) 3,395 5.4 -12.2°
